Regional Weather Roundup
Issued by NWS

Home | Current Version | Previous Version | Graphics & Text | Print | Product List | Glossary On
Versions: 1 2 3 4 5 6 7 8 9 10 11 12 13 14 15 16 17 18 19 20 21 22 23 24 25 26 27 28 29 30 31 32 33 34 35 36 37 38 39 40 41 42 43 44 45 46 47 48 49 50
000
ASUS43 KOAX 290302
RWRNE

WEATHER ROUNDUP FOR NEBRASKA
NATIONAL WEATHER SERVICE OMAHA NE
900 PM CST WED JAN 28 2015

NOTES: SATELLITE DATA IS BEING USED TO AUGMENT CLOUD COVER ABOVE
       12000 FEET.
       "FAIR" INDICATES FEW OR NO CLOUDS BELOW 12,000 FEET WITH NO
       SIGNIFICANT WEATHER AND/OR OBSTRUCTIONS TO VISIBILITY.

  * THESE STATIONS DO NOT REPORT WEATHER SUCH AS RAIN...SNOW OR FOG.

NEZ001>004-019>022-054>056-290400-
NEBRASKA PANHANDLE

CITY           SKY/WX    TMP DP  RH WIND       PRES   REMARKS
SCOTTSBLUFF    PTCLDY    36  32  85 NW6       30.21R WCI  31
ALLIANCE       CLEAR     41  28  60 NW20G26   30.16R
CHADRON        CLEAR     39  28  64 NW7       30.21R WCI  34
SIDNEY         CLEAR     39  34  82 NW15      30.19R WCI  31
$$

NEZ057>060-069>072-079>082-290400-
SOUTHWEST NEBRASKA

CITY           SKY/WX    TMP DP  RH WIND       PRES   REMARKS
NORTH PLATTE   PTCLDY    44  34  67 NW13      30.07R
IMPERIAL       CLEAR     45  32  60 NW14      30.13R
LEXINGTON      CLEAR     50  32  50 NW15      30.00R
MCCOOK         CLEAR     46  29  51 W12       30.07R
$$

NEZ005>010-023>029-035>040-094-290400-
NORTH CENTRAL NEBRASKA

CITY           SKY/WX    TMP DP  RH WIND       PRES   REMARKS
VALENTINE      CLOUDY    37  30  75 N26G40    30.12R WCI  25
AINSWORTH      CLOUDY    41  32  71 N28G37    30.07R
BROKEN BOW     PTCLDY    51  30  44 NW20G30   29.99R
ORD            LGT RAIN  49  35  58 NW22G37   29.96R
$$

NEZ041-046>049-061>064-073>077-083>087-290400-
SOUTH CENTRAL NEBRASKA

CITY           SKY/WX    TMP DP  RH WIND       PRES   REMARKS
GRAND ISLAND   CLOUDY    54  31  41 NW21G31   29.93R
AURORA         MOCLDY    54  31  41 NW26G36   29.92R
HASTINGS       MOCLDY    55  28  35 N26G35    29.92R
KEARNEY *      CLOUDY    54  30  40 N18G26    29.96R
YORK           PTCLDY    52  32  46 NW18G26   29.89R
$$

NEZ011>018-030>034-042>045-290400-
NORTHEAST NEBRASKA

CITY           SKY/WX    TMP DP  RH WIND       PRES   REMARKS
NORFOLK        CLOUDY    48  36  63 NW31G46   29.88R
ALBION         MOCLDY    49  33  52 N24G31    29.91R
BLAIR          CLEAR     47  37  69 NW24G30   29.80R
COLUMBUS *     CLOUDY    48  34  57 NW18G25   29.89R
FREMONT        PTCLDY    46  38  74 NW16      29.85R
TEKAMAH        CLEAR     45  37  73 NW23G38   29.82R
$$

NEZ050>053-065>068-078-088>093-290400-
SOUTHEAST NEBRASKA

CITY           SKY/WX    TMP DP  RH WIND       PRES   REMARKS
LINCOLN        PTCLDY    54  35  48 NW24G31   29.85R
OMAHA EPPLEY   MOCLDY    49  38  65 NW25G40   29.79R
FALLS CITY     CLEAR     53  34  48 NW17      29.76R
NEBRASKA CITY  CLEAR     51  32  48 NW18G29   29.79R
$$

NEZ044-045-051>053-067-290400-
OMAHA AREA

CITY           SKY/WX    TMP DP  RH WIND       PRES   REMARKS
OMAHA EPPLEY   MOCLDY    49  38  65 NW25G40   29.79R
BLAIR          CLEAR     47  37  69 NW24G30   29.80R
FREMONT        PTCLDY    46  38  74 NW16      29.85R
OFFUTT AFB     CLEAR     51  39  63 NW21G30   29.78R
WAHOO          FAIR      49  35  58 NW23G32   29.83R
$$


USA.gov is the U.S. government's official web portal to all federal, state and local government web resources and services.